Time,TemperatureF,DewpointF,PressureIn,WindDirection,WindDirectionDegrees,WindSpeedMPH,WindSpeedGustMPH,Humidity,HourlyPrecipIn,Conditions,Clouds,dailyrainin,SoftwareType,DateUTC
2013-02-10 00:04:00,40.3,25.5,29.88,East,93,0.1,2.7,56,0.00,,,0.00,WSDL version 420,2013-02-10 08:04:00,
2013-02-10 00:09:00,40.2,25.8,29.88,South,177,1.7,2.5,56,0.00,,,0.00,WSDL version 420,2013-02-10 08:09:00,
2013-02-10 00:14:00,39.9,25.8,29.91,South,180,0.5,2.5,56,0.00,,,0.00,WSDL version 420,2013-02-10 08:14:00,
2013-02-10 00:19:00,39.9,25.7,29.91,SSE,163,0.4,2.7,56,0.00,,,0.00,WSDL version 420,2013-02-10 08:19:00,
2013-02-10 00:24:00,39.9,26.1,29.91,SSE,160,1.0,2.7,58,0.00,,,0.00,WSDL version 420,2013-02-10 08:24:00,
2013-02-10 00:29:00,40.1,27.3,29.88,South,190,1.7,2.5,60,0.00,,,0.00,WSDL version 420,2013-02-10 08:29:00,
2013-02-10 00:34:00,40.1,27.1,29.88,South,183,2.0,2.5,59,0.00,,,0.00,WSDL version 420,2013-02-10 08:34:00,
2013-02-10 00:39:00,40.1,26.7,29.88,South,180,1.9,2.5,58,0.00,,,0.00,WSDL version 420,2013-02-10 08:39:00,
2013-02-10 00:44:00,40.0,26.8,29.88,SSE,165,1.4,2.5,59,0.00,,,0.00,WSDL version 420,2013-02-10 08:44:00,
2013-02-10 00:49:00,39.9,27.4,29.88,South,180,1.7,2.9,61,0.00,,,0.00,WSDL version 420,2013-02-10 08:49:00,
2013-02-10 00:54:00,39.8,27.4,29.88,South,172,2.2,2.9,60,0.00,,,0.00,WSDL version 420,2013-02-10 08:54:00,
2013-02-10 00:59:00,39.7,27.1,29.88,South,186,1.9,3.1,61,0.00,,,0.00,WSDL version 420,2013-02-10 08:59:00,
2013-02-10 01:04:00,39.7,27.5,29.88,South,183,2.4,3.1,62,0.00,,,0.00,WSDL version 420,2013-02-10 09:04:00,
2013-02-10 01:09:00,39.5,27.2,29.88,SSE,165,2.0,3.1,62,0.00,,,0.00,WSDL version 420,2013-02-10 09:09:00,
2013-02-10 01:14:00,39.5,28.2,29.91,SSW,200,2.9,4.3,64,0.00,,,0.00,WSDL version 420,2013-02-10 09:14:00,
2013-02-10 01:19:00,39.5,28.0,29.91,South,170,1.9,4.3,63,0.00,,,0.00,WSDL version 420,2013-02-10 09:19:00,
2013-02-10 01:24:00,39.4,27.8,29.91,South,183,1.8,2.9,63,0.00,,,0.00,WSDL version 420,2013-02-10 09:24:00,
2013-02-10 01:29:00,39.4,27.8,29.88,South,178,1.6,2.7,63,0.00,,,0.00,WSDL version 420,2013-02-10 09:29:00,
2013-02-10 01:34:00,39.4,28.2,29.88,South,180,1.7,2.7,64,0.00,,,0.00,WSDL version 420,2013-02-10 09:34:00,
2013-02-10 01:39:00,39.2,27.5,29.88,South,180,1.5,2.5,62,0.00,,,0.00,WSDL version 420,2013-02-10 09:39:00,
2013-02-10 01:44:00,39.2,27.6,29.88,South,180,1.2,2.2,63,0.00,,,0.00,WSDL version 420,2013-02-10 09:44:00,
2013-02-10 01:49:00,39.2,27.8,29.88,South,180,0.4,2.0,63,0.00,,,0.00,WSDL version 420,2013-02-10 09:49:00,
2013-02-10 01:54:00,39.0,27.5,29.88,South,180,1.2,1.6,63,0.00,,,0.00,WSDL version 420,2013-02-10 09:54:00,
2013-02-10 01:59:00,39.0,27.3,29.88,South,174,1.3,2.0,63,0.00,,,0.00,WSDL version 420,2013-02-10 09:59:00,
2013-02-10 02:04:00,39.0,27.5,29.88,South,188,0.0,2.0,63,0.00,,,0.00,WSDL version 420,2013-02-10 10:04:00,
2013-02-10 02:09:00,39.0,27.6,29.88,SSW,197,0.0,1.1,63,0.00,,,0.00,WSDL version 420,2013-02-10 10:09:00,
2013-02-10 02:14:00,39.0,27.5,29.88,South,191,0.1,1.6,63,0.00,,,0.00,WSDL version 420,2013-02-10 10:14:00,
2013-02-10 02:19:00,39.0,27.9,29.88,South,185,0.4,1.6,64,0.00,,,0.00,WSDL version 420,2013-02-10 10:19:00,
2013-02-10 02:24:00,39.0,27.9,29.88,South,180,0.0,1.3,65,0.00,,,0.00,WSDL version 420,2013-02-10 10:24:00,
2013-02-10 02:29:00,39.0,28.3,29.88,South,180,1.3,2.0,65,0.00,,,0.00,WSDL version 420,2013-02-10 10:29:00,
2013-02-10 02:34:00,39.0,28.3,29.88,South,180,0.0,2.0,65,0.00,,,0.00,WSDL version 420,2013-02-10 10:34:00,
2013-02-10 02:39:00,39.0,28.5,29.88,SSW,203,0.0,1.6,66,0.00,,,0.00,WSDL version 420,2013-02-10 10:39:00,
2013-02-10 02:44:00,39.0,28.6,29.88,SSW,203,0.0,1.1,67,0.00,,,0.00,WSDL version 420,2013-02-10 10:44:00,
2013-02-10 02:49:00,39.0,29.1,29.88,SSW,203,0.2,2.2,67,0.00,,,0.00,WSDL version 420,2013-02-10 10:49:00,
2013-02-10 02:54:00,39.2,28.9,29.88,SSW,203,0.5,2.2,67,0.00,,,0.00,WSDL version 420,2013-02-10 10:54:00,
2013-02-10 02:59:00,39.3,29.4,29.91,SSW,203,0.0,2.2,66,0.00,,,0.00,WSDL version 420,2013-02-10 10:59:00,
2013-02-10 03:04:00,39.2,28.9,29.91,SSW,203,0.2,2.2,67,0.00,,,0.00,WSDL version 420,2013-02-10 11:04:00,
2013-02-10 03:09:00,39.2,29.0,29.91,SSW,203,1.1,2.0,66,0.00,,,0.00,WSDL version 420,2013-02-10 11:09:00,
2013-02-10 03:14:00,39.3,29.3,29.88,SSW,203,0.0,2.0,67,0.00,,,0.00,WSDL version 420,2013-02-10 11:14:00,
2013-02-10 03:19:00,39.3,29.2,29.88,SW,217,1.5,2.5,66,0.00,,,0.00,WSDL version 420,2013-02-10 11:19:00,
2013-02-10 03:24:00,39.1,28.8,29.88,South,180,1.4,2.5,67,0.00,,,0.00,WSDL version 420,2013-02-10 11:24:00,
2013-02-10 03:29:00,38.9,28.9,29.88,South,188,1.5,2.2,67,0.00,,,0.00,WSDL version 420,2013-02-10 11:29:00,
2013-02-10 03:34:00,38.8,28.6,29.88,South,180,1.6,2.2,66,0.00,,,0.00,WSDL version 420,2013-02-10 11:34:00,
2013-02-10 03:39:00,38.5,28.2,29.88,South,180,1.3,2.2,66,0.00,,,0.00,WSDL version 420,2013-02-10 11:39:00,
2013-02-10 03:44:00,38.3,28.4,29.88,SSW,203,1.1,2.2,67,0.00,,,0.00,WSDL version 420,2013-02-10 11:44:00,
2013-02-10 03:49:00,38.2,28.2,29.88,South,186,0.0,2.2,67,0.00,,,0.00,WSDL version 420,2013-02-10 11:49:00,
2013-02-10 03:54:00,38.1,28.1,29.88,South,180,0.0,1.6,67,0.00,,,0.00,WSDL version 420,2013-02-10 11:54:00,
2013-02-10 03:59:00,37.9,27.9,29.88,SE,129,1.3,3.8,67,0.00,,,0.00,WSDL version 420,2013-02-10 11:59:00,
2013-02-10 04:04:00,37.7,27.8,29.88,SSE,158,1.2,3.8,67,0.00,,,0.00,WSDL version 420,2013-02-10 12:04:00,
2013-02-10 04:09:00,37.5,27.6,29.88,SE,130,1.6,3.8,67,0.00,,,0.00,WSDL version 420,2013-02-10 12:09:00,
2013-02-10 04:14:00,37.4,27.5,29.88,South,180,0.0,2.7,67,0.00,,,0.00,WSDL version 420,2013-02-10 12:14:00,
2013-02-10 04:19:00,37.3,28.0,29.88,South,180,0.0,2.7,69,0.00,,,0.00,WSDL version 420,2013-02-10 12:19:00,
2013-02-10 04:24:00,37.2,28.2,29.88,South,180,0.0,0.0,70,0.00,,,0.00,WSDL version 420,2013-02-10 12:24:00,
2013-02-10 04:29:00,37.2,28.1,29.88,South,180,0.0,0.0,70,0.00,,,0.00,WSDL version 420,2013-02-10 12:29:00,
2013-02-10 04:34:00,37.1,28.5,29.88,South,180,0.0,0.0,71,0.00,,,0.00,WSDL version 420,2013-02-10 12:34:00,
2013-02-10 04:39:00,37.0,28.5,29.88,South,180,1.0,2.0,71,0.00,,,0.00,WSDL version 420,2013-02-10 12:39:00,
2013-02-10 04:44:00,37.0,28.9,29.88,SSE,158,0.0,2.0,72,0.00,,,0.00,WSDL version 420,2013-02-10 12:44:00,
2013-02-10 04:49:00,37.0,28.9,29.88,South,180,0.0,2.0,72,0.00,,,0.00,WSDL version 420,2013-02-10 12:49:00,
2013-02-10 04:54:00,37.0,28.7,29.88,South,180,1.3,2.0,71,0.00,,,0.00,WSDL version 420,2013-02-10 12:54:00,
2013-02-10 04:59:00,36.8,28.4,29.88,SE,143,1.6,2.9,72,0.00,,,0.00,WSDL version 420,2013-02-10 12:59:00,
2013-02-10 05:04:00,36.7,28.7,29.88,South,180,1.0,2.9,74,0.00,,,0.00,WSDL version 420,2013-02-10 13:04:00,
2013-02-10 05:09:00,36.5,29.0,29.88,SSE,152,1.6,2.5,74,0.00,,,0.00,WSDL version 420,2013-02-10 13:09:00,
2013-02-10 05:14:00,36.5,29.6,29.88,South,170,1.8,3.4,76,0.00,,,0.00,WSDL version 420,2013-02-10 13:14:00,
2013-02-10 05:19:00,36.3,29.7,29.88,SSE,151,1.7,3.4,77,0.00,,,0.00,WSDL version 420,2013-02-10 13:19:00,
2013-02-10 05:24:00,36.6,30.4,29.88,South,173,1.9,2.9,79,0.00,,,0.00,WSDL version 420,2013-02-10 13:24:00,
2013-02-10 05:29:00,36.8,30.9,29.88,South,169,0.2,2.9,79,0.00,,,0.00,WSDL version 420,2013-02-10 13:29:00,
2013-02-10 05:34:00,36.9,31.0,29.88,South,180,1.1,2.9,79,0.00,,,0.00,WSDL version 420,2013-02-10 13:34:00,
2013-02-10 05:39:00,36.9,31.0,29.88,South,177,1.5,2.9,79,0.00,,,0.00,WSDL version 420,2013-02-10 13:39:00,
2013-02-10 05:44:00,36.8,30.7,29.88,SSE,161,0.8,2.9,78,0.00,,,0.00,WSDL version 420,2013-02-10 13:44:00,
2013-02-10 05:49:00,36.8,30.9,29.88,SSW,198,2.5,2.7,80,0.00,,,0.00,WSDL version 420,2013-02-10 13:49:00,
2013-02-10 05:54:00,37.2,31.4,29.88,South,186,2.2,2.9,79,0.00,,,0.00,WSDL version 420,2013-02-10 13:54:00,
2013-02-10 05:59:00,37.5,31.2,29.88,SSE,160,0.1,2.9,78,0.00,,,0.00,WSDL version 420,2013-02-10 13:59:00,
2013-02-10 06:04:00,37.2,30.6,29.88,ESE,108,3.2,4.0,77,0.00,,,0.00,WSDL version 420,2013-02-10 14:04:00,
2013-02-10 06:09:00,36.8,30.1,29.88,SE,135,1.8,4.0,76,0.00,,,0.00,WSDL version 420,2013-02-10 14:09:00,
2013-02-10 06:14:00,36.6,29.9,29.91,ESE,120,1.6,2.5,77,0.00,,,0.00,WSDL version 420,2013-02-10 14:14:00,
2013-02-10 06:19:00,36.5,29.9,29.91,SE,135,1.4,2.2,77,0.00,,,0.00,WSDL version 420,2013-02-10 14:19:00,
2013-02-10 06:24:00,36.3,29.5,29.91,SSE,158,0.0,2.0,76,0.00,,,0.00,WSDL version 420,2013-02-10 14:24:00,
2013-02-10 06:29:00,36.3,29.6,29.91,SE,135,1.2,2.0,76,0.00,,,0.00,WSDL version 420,2013-02-10 14:29:00,
2013-02-10 06:34:00,36.1,29.4,29.91,SSE,158,0.0,2.0,77,0.00,,,0.00,WSDL version 420,2013-02-10 14:34:00,
2013-02-10 06:39:00,36.1,29.8,29.91,South,185,0.9,2.2,78,0.00,,,0.00,WSDL version 420,2013-02-10 14:39:00,
2013-02-10 06:44:00,36.1,29.8,29.91,SSE,158,0.3,2.2,77,0.00,,,0.00,WSDL version 420,2013-02-10 14:44:00,
2013-02-10 06:49:00,36.0,29.5,29.91,ESE,123,2.6,3.4,76,0.00,,,0.00,WSDL version 420,2013-02-10 14:49:00,
2013-02-10 06:54:00,36.0,29.5,29.91,South,177,0.2,3.4,78,0.00,,,0.00,WSDL version 420,2013-02-10 14:54:00,
2013-02-10 06:59:00,36.0,30.0,29.91,South,183,1.9,2.9,80,0.00,,,0.00,WSDL version 420,2013-02-10 14:59:00,
2013-02-10 07:04:00,36.0,29.9,29.91,South,186,0.1,2.9,79,0.00,,,0.00,WSDL version 420,2013-02-10 15:04:00,
2013-02-10 07:09:00,36.0,30.2,29.91,SSW,194,1.8,2.2,80,0.00,,,0.00,WSDL version 420,2013-02-10 15:09:00,
2013-02-10 07:14:00,36.1,30.8,29.91,SSW,199,0.0,2.2,80,0.00,,,0.00,WSDL version 420,2013-02-10 15:14:00,
2013-02-10 07:19:00,36.1,30.3,29.91,SSE,161,0.4,2.0,79,0.00,,,0.00,WSDL version 420,2013-02-10 15:19:00,
2013-02-10 07:24:00,36.0,29.8,29.91,ESE,107,3.4,4.0,78,0.00,,,0.00,WSDL version 420,2013-02-10 15:24:00,
2013-02-10 07:29:00,36.0,29.8,29.91,SSE,148,1.7,4.0,78,0.00,,,0.00,WSDL version 420,2013-02-10 15:29:00,
2013-02-10 07:34:00,36.0,30.3,29.91,SSE,158,2.3,3.8,80,0.00,,,0.00,WSDL version 420,2013-02-10 15:34:00,
2013-02-10 07:44:00,36.2,31.3,29.94,South,185,1.9,3.8,82,0.00,,,0.00,WSDL version 420,2013-02-10 15:44:00,
2013-02-10 07:54:00,37.1,32.9,29.94,SSE,160,1.8,4.3,84,0.00,,,0.00,WSDL version 420,2013-02-10 15:54:00,
2013-02-10 08:04:00,37.9,33.0,29.94,SSE,155,1.4,2.7,82,0.00,,,0.00,WSDL version 420,2013-02-10 16:04:00,
2013-02-10 08:09:00,38.5,33.0,29.94,South,175,1.3,2.7,80,0.00,,,0.00,WSDL version 420,2013-02-10 16:09:00,
2013-02-10 08:14:00,39.2,33.1,29.91,South,188,0.6,2.7,78,0.00,,,0.00,WSDL version 420,2013-02-10 16:14:00,
2013-02-10 08:19:00,40.2,33.9,29.91,SSE,163,0.8,3.1,77,0.00,,,0.00,WSDL version 420,2013-02-10 16:19:00,
2013-02-10 08:24:00,42.2,35.4,29.91,SE,146,1.7,3.1,75,0.00,,,0.00,WSDL version 420,2013-02-10 16:24:00,
2013-02-10 08:29:00,44.2,35.5,29.91,SSE,149,1.9,2.7,70,0.00,,,0.00,WSDL version 420,2013-02-10 16:29:00,
2013-02-10 08:34:00,45.3,34.8,29.91,East,90,1.1,3.1,67,0.00,,,0.00,WSDL version 420,2013-02-10 16:34:00,
2013-02-10 08:39:00,47.0,36.8,29.91,South,180,1.1,3.1,68,0.00,,,0.00,WSDL version 420,2013-02-10 16:39:00,
2013-02-10 08:44:00,48.2,36.3,29.91,South,180,0.4,2.2,62,0.00,,,0.00,WSDL version 420,2013-02-10 16:44:00,
2013-02-10 08:49:00,48.2,35.0,29.91,South,174,0.0,1.6,61,0.00,,,0.00,WSDL version 420,2013-02-10 16:49:00,
2013-02-10 08:54:00,48.7,35.4,29.91,East,90,0.0,2.0,60,0.00,,,0.00,WSDL version 420,2013-02-10 16:54:00,
2013-02-10 08:59:00,48.5,35.0,29.91,WNW,293,0.4,2.0,59,0.00,,,0.00,WSDL version 420,2013-02-10 16:59:00,
2013-02-10 09:04:00,48.6,33.6,29.91,NNW,335,2.4,3.6,52,0.00,,,0.00,WSDL version 420,2013-02-10 17:04:00,
2013-02-10 09:09:00,48.4,32.2,29.91,NNW,345,0.7,3.6,54,0.00,,,0.00,WSDL version 420,2013-02-10 17:09:00,
2013-02-10 09:14:00,48.9,32.8,29.94,SSW,203,0.0,3.1,54,0.00,,,0.00,WSDL version 420,2013-02-10 17:14:00,
2013-02-10 09:19:00,49.1,32.8,29.94,North,357,0.8,2.7,53,0.00,,,0.00,WSDL version 420,2013-02-10 17:19:00,
2013-02-10 09:24:00,48.8,31.6,29.94,NNW,335,2.4,3.6,51,0.00,,,0.00,WSDL version 420,2013-02-10 17:24:00,
2013-02-10 09:29:00,48.7,32.3,29.94,NNW,347,2.7,3.6,53,0.00,,,0.00,WSDL version 420,2013-02-10 17:29:00,
2013-02-10 09:34:00,48.8,33.2,29.94,NNW,328,2.1,3.6,55,0.00,,,0.00,WSDL version 420,2013-02-10 17:34:00,
2013-02-10 09:39:00,49.1,33.9,29.94,NNW,334,2.2,3.6,56,0.00,,,0.00,WSDL version 420,2013-02-10 17:39:00,
2013-02-10 09:44:00,49.3,34.2,29.91,NNW,338,2.0,3.6,56,0.00,,,0.00,WSDL version 420,2013-02-10 17:44:00,
2013-02-10 09:49:00,49.2,34.2,29.91,West,264,2.1,4.3,56,0.00,,,0.00,WSDL version 420,2013-02-10 17:49:00,
2013-02-10 09:54:00,49.1,34.1,29.91,NNW,335,3.5,4.3,56,0.00,,,0.00,WSDL version 420,2013-02-10 17:54:00,
2013-02-10 09:59:00,49.2,34.4,29.91,NNW,340,2.6,4.3,56,0.00,,,0.00,WSDL version 420,2013-02-10 17:59:00,
2013-02-10 10:04:00,49.3,34.7,29.91,NW,313,1.8,3.6,57,0.00,,,0.00,WSDL version 420,2013-02-10 18:04:00,
2013-02-10 10:09:00,49.5,34.8,29.91,NNE,25,1.6,3.4,57,0.00,,,0.00,WSDL version 420,2013-02-10 18:09:00,
2013-02-10 10:14:00,49.8,34.8,29.91,NNW,346,2.0,3.4,56,0.00,,,0.00,WSDL version 420,2013-02-10 18:14:00,
2013-02-10 10:19:00,49.5,34.6,29.91,NNW,345,2.5,3.4,57,0.00,,,0.00,WSDL version 420,2013-02-10 18:19:00,
2013-02-10 10:24:00,49.6,35.3,29.91,NW,321,1.9,3.1,58,0.00,,,0.00,WSDL version 420,2013-02-10 18:24:00,
2013-02-10 10:29:00,49.6,35.8,29.91,West,273,2.2,3.4,59,0.00,,,0.00,WSDL version 420,2013-02-10 18:29:00,
2013-02-10 10:34:00,49.8,36.0,29.91,NNW,343,2.0,3.4,58,0.00,,,0.00,WSDL version 420,2013-02-10 18:34:00,
2013-02-10 10:39:00,50.1,36.0,29.91,NW,318,2.3,3.6,58,0.00,,,0.00,WSDL version 420,2013-02-10 18:39:00,
2013-02-10 10:44:00,50.8,36.7,29.91,SSW,200,0.4,3.8,59,0.00,,,0.00,WSDL version 420,2013-02-10 18:44:00,
2013-02-10 10:49:00,51.2,36.8,29.91,North,349,2.7,4.0,57,0.00,,,0.00,WSDL version 420,2013-02-10 18:49:00,
2013-02-10 10:54:00,51.6,36.6,29.91,NNW,338,2.6,4.0,56,0.00,,,0.00,WSDL version 420,2013-02-10 18:54:00,
2013-02-10 10:59:00,51.8,36.6,29.91,WNW,295,1.6,4.0,56,0.00,,,0.00,WSDL version 420,2013-02-10 18:59:00,
2013-02-10 11:04:00,52.5,37.0,29.91,NW,315,2.6,4.0,55,0.00,,,0.00,WSDL version 420,2013-02-10 19:04:00,
2013-02-10 11:09:00,53.1,37.2,29.91,NNW,330,2.2,3.8,54,0.00,,,0.00,WSDL version 420,2013-02-10 19:09:00,
2013-02-10 11:14:00,53.2,36.2,29.91,North,349,2.8,4.3,52,0.00,,,0.00,WSDL version 420,2013-02-10 19:14:00,
2013-02-10 11:19:00,53.2,35.7,29.91,NW,323,3.7,4.3,51,0.00,,,0.00,WSDL version 420,2013-02-10 19:19:00,
2013-02-10 11:24:00,53.1,35.1,29.91,North,8,2.8,4.3,49,0.00,,,0.00,WSDL version 420,2013-02-10 19:24:00,
2013-02-10 11:29:00,53.8,35.7,29.88,NNW,330,2.3,4.0,50,0.00,,,0.00,WSDL version 420,2013-02-10 19:29:00,
2013-02-10 11:34:00,54.0,35.1,29.88,NNW,329,3.0,4.3,49,0.00,,,0.00,WSDL version 420,2013-02-10 19:34:00,
2013-02-10 11:39:00,54.1,35.2,29.88,WNW,295,1.9,4.3,49,0.00,,,0.00,WSDL version 420,2013-02-10 19:39:00,
2013-02-10 11:44:00,54.4,35.5,29.88,NNW,338,3.2,6.3,48,0.00,,,0.00,WSDL version 420,2013-02-10 19:44:00,
2013-02-10 11:49:00,54.8,36.0,29.88,NW,315,2.1,6.3,49,0.00,,,0.00,WSDL version 420,2013-02-10 19:49:00,
2013-02-10 11:54:00,55.0,35.7,29.88,WNW,300,3.2,4.7,47,0.00,,,0.00,WSDL version 420,2013-02-10 19:54:00,
2013-02-10 11:59:00,56.0,37.1,29.88,NW,309,1.8,4.7,49,0.00,,,0.00,WSDL version 420,2013-02-10 19:59:00,
2013-02-10 12:04:00,56.1,36.1,29.88,NW,320,3.0,4.9,46,0.00,,,0.00,WSDL version 420,2013-02-10 20:04:00,
2013-02-10 12:09:00,56.2,36.0,29.88,NW,312,3.0,4.9,46,0.00,,,0.00,WSDL version 420,2013-02-10 20:09:00,
2013-02-10 12:14:00,56.1,35.6,29.85,West,278,2.1,4.3,46,0.00,,,0.00,WSDL version 420,2013-02-10 20:14:00,
2013-02-10 12:19:00,56.4,35.8,29.85,NW,307,2.5,4.3,45,0.00,,,0.00,WSDL version 420,2013-02-10 20:19:00,
2013-02-10 12:24:00,56.4,35.4,29.85,WSW,242,2.3,5.6,46,0.00,,,0.00,WSDL version 420,2013-02-10 20:24:00,
2013-02-10 12:29:00,57.1,36.1,29.85,NW,323,3.0,5.6,45,0.00,,,0.00,WSDL version 420,2013-02-10 20:29:00,
2013-02-10 12:34:00,56.9,36.3,29.85,NNW,338,3.5,4.9,46,0.00,,,0.00,WSDL version 420,2013-02-10 20:34:00,
2013-02-10 12:39:00,57.0,36.4,29.85,North,350,3.8,5.6,45,0.00,,,0.00,WSDL version 420,2013-02-10 20:39:00,
2013-02-10 12:44:00,57.2,36.1,29.85,NNW,329,2.5,5.6,45,0.00,,,0.00,WSDL version 420,2013-02-10 20:44:00,
2013-02-10 12:49:00,57.4,35.8,29.85,NNW,333,2.2,4.3,45,0.00,,,0.00,WSDL version 420,2013-02-10 20:49:00,
2013-02-10 12:54:00,57.6,35.8,29.85,WNW,300,2.5,4.3,43,0.00,,,0.00,WSDL version 420,2013-02-10 20:54:00,
2013-02-10 12:59:00,57.7,35.1,29.85,NW,315,3.4,4.9,42,0.00,,,0.00,WSDL version 420,2013-02-10 20:59:00,
2013-02-10 13:04:00,58.0,34.9,29.85,NNW,333,3.0,4.9,42,0.00,,,0.00,WSDL version 420,2013-02-10 21:04:00,
2013-02-10 13:09:00,58.1,34.4,29.85,North,8,3.1,4.9,42,0.00,,,0.00,WSDL version 420,2013-02-10 21:09:00,
2013-02-10 13:14:00,57.6,34.4,29.85,NNW,348,3.9,4.9,41,0.00,,,0.00,WSDL version 420,2013-02-10 21:14:00,
2013-02-10 13:19:00,57.2,33.7,29.85,NW,325,2.8,5.4,41,0.00,,,0.00,WSDL version 420,2013-02-10 21:19:00,
2013-02-10 13:24:00,57.3,33.4,29.85,NNW,348,3.0,5.4,41,0.00,,,0.00,WSDL version 420,2013-02-10 21:24:00,
2013-02-10 13:29:00,57.4,33.0,29.83,NNW,340,3.7,4.9,39,0.00,,,0.00,WSDL version 420,2013-02-10 21:29:00,
2013-02-10 13:34:00,57.2,32.7,29.83,NNW,338,3.4,5.4,40,0.00,,,0.00,WSDL version 420,2013-02-10 21:34:00,
2013-02-10 13:39:00,57.3,32.5,29.83,NNW,338,3.4,5.4,38,0.00,,,0.00,WSDL version 420,2013-02-10 21:39:00,
2013-02-10 13:44:00,57.3,32.5,29.83,NNW,340,2.6,4.3,39,0.00,,,0.00,WSDL version 420,2013-02-10 21:44:00,
2013-02-10 13:49:00,57.5,32.1,29.83,WNW,303,2.4,4.0,38,0.00,,,0.00,WSDL version 420,2013-02-10 21:49:00,
2013-02-10 13:54:00,57.8,32.4,29.83,NNW,346,2.6,4.0,38,0.00,,,0.00,WSDL version 420,2013-02-10 21:54:00,
2013-02-10 13:59:00,58.2,32.7,29.83,NNW,340,2.6,5.4,38,0.00,,,0.00,WSDL version 420,2013-02-10 21:59:00,
2013-02-10 14:04:00,58.3,32.8,29.83,North,360,2.3,5.4,38,0.00,,,0.00,WSDL version 420,2013-02-10 22:04:00,
2013-02-10 14:14:00,58.5,33.0,29.83,NW,313,2.3,4.3,38,0.00,,,0.00,WSDL version 420,2013-02-10 22:14:00,
2013-02-10 14:19:00,59.1,33.6,29.83,NNE,16,1.5,4.0,38,0.00,,,0.00,WSDL version 420,2013-02-10 22:19:00,
2013-02-10 14:24:00,59.6,33.5,29.83,SSE,148,1.9,4.0,37,0.00,,,0.00,WSDL version 420,2013-02-10 22:24:00,
2013-02-10 14:29:00,60.2,34.1,29.83,ESE,113,1.5,3.8,38,0.00,,,0.00,WSDL version 420,2013-02-10 22:29:00,
2013-02-10 14:34:00,61.4,34.9,29.83,South,190,1.2,3.1,37,0.00,,,0.00,WSDL version 420,2013-02-10 22:34:00,
2013-02-10 14:39:00,61.3,34.5,29.83,ENE,70,2.2,3.1,36,0.00,,,0.00,WSDL version 420,2013-02-10 22:39:00,
2013-02-10 14:44:00,61.3,34.1,29.83,NNE,20,2.1,3.8,36,0.00,,,0.00,WSDL version 420,2013-02-10 22:44:00,
2013-02-10 14:49:00,60.7,33.5,29.83,NNE,13,2.7,4.3,36,0.00,,,0.00,WSDL version 420,2013-02-10 22:49:00,
2013-02-10 14:54:00,60.6,33.5,29.83,NE,34,3.2,4.3,36,0.00,,,0.00,WSDL version 420,2013-02-10 22:54:00,
2013-02-10 14:59:00,61.3,33.9,29.83,ENE,63,2.4,4.0,36,0.00,,,0.00,WSDL version 420,2013-02-10 22:59:00,
2013-02-10 15:04:00,61.7,34.2,29.83,ENE,76,2.3,3.8,36,0.00,,,0.00,WSDL version 420,2013-02-10 23:04:00,
2013-02-10 15:09:00,61.9,34.2,29.83,NE,34,1.4,3.8,36,0.00,,,0.00,WSDL version 420,2013-02-10 23:09:00,
2013-02-10 15:14:00,62.1,34.7,29.80,ESE,103,4.2,5.6,35,0.00,,,0.00,WSDL version 420,2013-02-10 23:14:00,
2013-02-10 15:19:00,62.2,34.3,29.80,SE,128,2.0,5.6,35,0.00,,,0.00,WSDL version 420,2013-02-10 23:19:00,
2013-02-10 15:24:00,62.2,34.3,29.80,ENE,73,1.3,4.0,35,0.00,,,0.00,WSDL version 420,2013-02-10 23:24:00,
2013-02-10 15:29:00,62.2,34.3,29.83,SE,138,2.1,3.1,35,0.00,,,0.00,WSDL version 420,2013-02-10 23:29:00,
2013-02-10 15:34:00,62.1,34.2,29.83,ENE,63,1.3,3.1,35,0.00,,,0.00,WSDL version 420,2013-02-10 23:34:00,
2013-02-10 15:39:00,62.0,34.1,29.83,East,100,3.9,4.7,35,0.00,,,0.00,WSDL version 420,2013-02-10 23:39:00,
2013-02-10 15:44:00,61.7,33.7,29.83,NE,48,1.4,4.7,34,0.00,,,0.00,WSDL version 420,2013-02-10 23:44:00,
2013-02-10 15:49:00,61.3,33.0,29.83,North,10,1.4,3.1,34,0.00,,,0.00,WSDL version 420,2013-02-10 23:49:00,
2013-02-10 15:59:00,60.4,32.6,29.83,NNE,33,1.7,3.1,35,0.00,,,0.00,WSDL version 420,2013-02-10 23:59:00,
2013-02-10 16:04:00,60.2,32.5,29.83,WSW,250,2.0,2.9,35,0.00,,,0.00,WSDL version 420,2013-02-11 00:04:00,
2013-02-10 16:09:00,59.9,32.2,29.83,NW,315,2.2,2.9,35,0.00,,,0.00,WSDL version 420,2013-02-11 00:09:00,
2013-02-10 16:14:00,59.9,32.2,29.83,West,276,0.6,2.9,35,0.00,,,0.00,WSDL version 420,2013-02-11 00:14:00,
2013-02-10 16:19:00,59.7,32.0,29.83,NW,313,3.2,7.2,35,0.00,,,0.00,WSDL version 420,2013-02-11 00:19:00,
2013-02-10 16:24:00,59.2,32.1,29.83,WSW,248,2.3,7.2,36,0.00,,,0.00,WSDL version 420,2013-02-11 00:24:00,
2013-02-10 16:29:00,59.0,32.1,29.80,WNW,301,3.0,4.3,36,0.00,,,0.00,WSDL version 420,2013-02-11 00:29:00,
2013-02-10 16:34:00,58.2,31.8,29.80,WSW,253,1.2,5.6,37,0.00,,,0.00,WSDL version 420,2013-02-11 00:34:00,
2013-02-10 16:39:00,58.0,31.9,29.80,WNW,293,3.0,5.6,37,0.00,,,0.00,WSDL version 420,2013-02-11 00:39:00,
2013-02-10 16:44:00,57.8,31.7,29.80,South,180,1.2,5.4,37,0.00,,,0.00,WSDL version 420,2013-02-11 00:44:00,
2013-02-10 16:49:00,57.6,31.5,29.80,SW,225,0.6,3.6,37,0.00,,,0.00,WSDL version 420,2013-02-11 00:49:00,
2013-02-10 16:54:00,57.4,31.4,29.80,SSW,208,0.4,3.6,37,0.00,,,0.00,WSDL version 420,2013-02-11 00:54:00,
2013-02-10 16:59:00,57.1,31.4,29.83,WSW,248,1.8,3.1,38,0.00,,,0.00,WSDL version 420,2013-02-11 00:59:00,
2013-02-10 17:04:00,56.9,31.6,29.83,WSW,256,1.9,3.6,38,0.00,,,0.00,WSDL version 420,2013-02-11 01:04:00,
2013-02-10 17:09:00,56.8,31.5,29.83,SW,218,3.0,4.3,38,0.00,,,0.00,WSDL version 420,2013-02-11 01:09:00,
2013-02-10 17:14:00,56.7,31.4,29.83,SW,225,2.5,4.3,38,0.00,,,0.00,WSDL version 420,2013-02-11 01:14:00,
2013-02-10 17:19:00,56.6,31.3,29.83,SW,225,2.8,4.3,38,0.00,,,0.00,WSDL version 420,2013-02-11 01:19:00,
2013-02-10 17:24:00,56.4,31.1,29.83,SW,222,2.3,4.3,38,0.00,,,0.00,WSDL version 420,2013-02-11 01:24:00,
2013-02-10 17:29:00,56.3,31.4,29.83,SW,228,2.2,4.0,39,0.00,,,0.00,WSDL version 420,2013-02-11 01:29:00,
2013-02-10 17:34:00,56.0,31.5,29.83,SSW,205,1.9,3.1,39,0.00,,,0.00,WSDL version 420,2013-02-11 01:34:00,
2013-02-10 17:39:00,55.8,32.1,29.83,SW,225,1.4,3.1,41,0.00,,,0.00,WSDL version 420,2013-02-11 01:39:00,
2013-02-10 17:44:00,55.4,32.4,29.83,SSW,205,1.5,3.6,43,0.00,,,0.00,WSDL version 420,2013-02-11 01:44:00,
2013-02-10 17:49:00,54.9,33.9,29.83,SW,214,3.0,5.4,45,0.00,,,0.00,WSDL version 420,2013-02-11 01:49:00,
2013-02-10 17:54:00,54.5,33.7,29.83,SSW,210,2.9,5.4,45,0.00,,,0.00,WSDL version 420,2013-02-11 01:54:00,
2013-02-10 17:59:00,54.1,33.7,29.83,SSW,203,1.9,4.0,46,0.00,,,0.00,WSDL version 420,2013-02-11 01:59:00,
2013-02-10 18:04:00,53.8,33.5,29.83,SSW,200,2.6,3.6,46,0.00,,,0.00,WSDL version 420,2013-02-11 02:04:00,
2013-02-10 18:09:00,53.4,33.4,29.83,SSW,203,1.5,3.4,46,0.00,,,0.00,WSDL version 420,2013-02-11 02:09:00,
2013-02-10 18:14:00,53.1,33.4,29.83,SSW,211,2.3,3.4,47,0.00,,,0.00,WSDL version 420,2013-02-11 02:14:00,
2013-02-10 18:19:00,53.0,33.3,29.83,SSW,203,1.8,3.4,47,0.00,,,0.00,WSDL version 420,2013-02-11 02:19:00,
2013-02-10 18:24:00,52.8,33.1,29.83,South,186,0.0,3.4,47,0.00,,,0.00,WSDL version 420,2013-02-11 02:24:00,
2013-02-10 18:29:00,52.6,32.9,29.83,South,180,0.0,2.0,47,0.00,,,0.00,WSDL version 420,2013-02-11 02:29:00,
2013-02-10 18:34:00,52.3,32.7,29.83,SE,129,0.2,2.5,47,0.00,,,0.00,WSDL version 420,2013-02-11 02:34:00,
2013-02-10 18:39:00,52.1,32.5,29.83,SE,125,0.5,2.7,47,0.00,,,0.00,WSDL version 420,2013-02-11 02:39:00,
2013-02-10 18:44:00,51.6,32.2,29.83,NW,308,1.8,2.7,48,0.00,,,0.00,WSDL version 420,2013-02-11 02:44:00,
2013-02-10 18:49:00,51.1,32.5,29.83,NNW,340,1.4,2.9,49,0.00,,,0.00,WSDL version 420,2013-02-11 02:49:00,
2013-02-10 18:54:00,51.0,32.5,29.83,WSW,258,0.9,2.9,49,0.00,,,0.00,WSDL version 420,2013-02-11 02:54:00,
2013-02-10 18:59:00,50.8,32.7,29.85,SSW,203,1.3,2.2,50,0.00,,,0.00,WSDL version 420,2013-02-11 02:59:00,
2013-02-10 19:04:00,50.5,32.8,29.85,WNW,288,2.0,3.4,51,0.00,,,0.00,WSDL version 420,2013-02-11 03:04:00,
2013-02-10 19:09:00,50.4,33.0,29.85,NNW,335,1.3,3.4,52,0.00,,,0.00,WSDL version 420,2013-02-11 03:09:00,
2013-02-10 19:14:00,50.3,33.8,29.83,WSW,248,1.1,2.9,53,0.00,,,0.00,WSDL version 420,2013-02-11 03:14:00,
2013-02-10 19:19:00,50.1,34.0,29.83,SSW,195,0.0,2.5,53,0.00,,,0.00,WSDL version 420,2013-02-11 03:19:00,
2013-02-10 19:24:00,50.0,33.9,29.83,South,180,0.0,2.0,54,0.00,,,0.00,WSDL version 420,2013-02-11 03:24:00,
2013-02-10 19:29:00,49.8,34.0,29.85,South,180,0.0,0.0,55,0.00,,,0.00,WSDL version 420,2013-02-11 03:29:00,
2013-02-10 19:34:00,49.6,34.1,29.85,SSW,203,0.0,0.0,55,0.00,,,0.00,WSDL version 420,2013-02-11 03:34:00,
2013-02-10 19:39:00,49.5,34.2,29.85,SSW,203,0.0,0.0,56,0.00,,,0.00,WSDL version 420,2013-02-11 03:39:00,
2013-02-10 19:44:00,49.4,34.5,29.83,SSW,203,0.0,0.0,56,0.00,,,0.00,WSDL version 420,2013-02-11 03:44:00,
2013-02-10 19:49:00,49.2,34.4,29.83,SSW,198,0.2,1.6,56,0.00,,,0.00,WSDL version 420,2013-02-11 03:49:00,
2013-02-10 19:54:00,48.9,35.2,29.83,SSW,197,0.5,1.6,59,0.00,,,0.00,WSDL version 420,2013-02-11 03:54:00,
2013-02-10 19:59:00,48.7,35.0,29.85,South,173,1.2,2.2,59,0.00,,,0.00,WSDL version 420,2013-02-11 03:59:00,
2013-02-10 20:04:00,48.5,34.8,29.85,South,180,1.8,2.7,62,0.00,,,0.00,WSDL version 420,2013-02-11 04:04:00,
2013-02-10 20:09:00,48.3,35.7,29.85,South,180,0.0,2.7,61,0.00,,,0.00,WSDL version 420,2013-02-11 04:09:00,
2013-02-10 20:14:00,48.2,35.1,29.85,South,180,0.0,2.2,60,0.00,,,0.00,WSDL version 420,2013-02-11 04:14:00,
2013-02-10 20:19:00,48.2,35.3,29.85,SSE,152,0.2,3.6,60,0.00,,,0.00,WSDL version 420,2013-02-11 04:19:00,
2013-02-10 20:24:00,48.0,35.2,29.85,SSE,155,2.3,5.4,61,0.00,,,0.00,WSDL version 420,2013-02-11 04:24:00,
2013-02-10 20:29:00,47.6,35.1,29.85,SSE,158,0.6,5.4,61,0.00,,,0.00,WSDL version 420,2013-02-11 04:29:00,
2013-02-10 20:34:00,47.5,34.7,29.85,SE,135,0.9,2.5,61,0.00,,,0.00,WSDL version 420,2013-02-11 04:34:00,
2013-02-10 20:39:00,47.3,34.7,29.85,South,180,1.2,2.0,62,0.00,,,0.00,WSDL version 420,2013-02-11 04:39:00,
2013-02-10 20:44:00,47.2,34.8,29.85,South,183,1.8,2.5,62,0.00,,,0.00,WSDL version 420,2013-02-11 04:44:00,
2013-02-10 20:49:00,47.0,34.7,29.85,SSE,158,1.9,2.5,62,0.00,,,0.00,WSDL version 420,2013-02-11 04:49:00,
2013-02-10 20:54:00,46.8,34.6,29.85,South,180,1.3,2.5,63,0.00,,,0.00,WSDL version 420,2013-02-11 04:54:00,
2013-02-10 20:59:00,46.7,34.8,29.85,ESE,103,1.5,2.7,63,0.00,,,0.00,WSDL version 420,2013-02-11 04:59:00,
2013-02-10 21:04:00,46.5,34.5,29.85,SSE,161,1.7,2.9,64,0.00,,,0.00,WSDL version 420,2013-02-11 05:04:00,
2013-02-10 21:09:00,46.3,34.9,29.85,ESE,107,3.1,4.3,64,0.00,,,0.00,WSDL version 420,2013-02-11 05:09:00,
2013-02-10 21:14:00,46.1,34.7,29.85,SSE,158,1.7,4.3,65,0.00,,,0.00,WSDL version 420,2013-02-11 05:14:00,
2013-02-10 21:19:00,46.0,34.9,29.85,South,177,1.9,2.9,65,0.00,,,0.00,WSDL version 420,2013-02-11 05:19:00,
2013-02-10 21:24:00,45.8,34.9,29.85,SSE,160,1.4,3.6,66,0.00,,,0.00,WSDL version 420,2013-02-11 05:24:00,
2013-02-10 21:29:00,45.5,34.8,29.85,ESE,115,3.2,4.0,66,0.00,,,0.00,WSDL version 420,2013-02-11 05:29:00,
2013-02-10 21:34:00,45.2,34.7,29.85,SE,145,2.6,4.0,67,0.00,,,0.00,WSDL version 420,2013-02-11 05:34:00,
2013-02-10 21:39:00,45.1,34.8,29.85,SE,138,1.2,3.8,67,0.00,,,0.00,WSDL version 420,2013-02-11 05:39:00,
2013-02-10 21:44:00,45.1,35.1,29.85,SE,141,3.0,3.8,68,0.00,,,0.00,WSDL version 420,2013-02-11 05:44:00,
2013-02-10 21:49:00,45.2,35.1,29.85,SSE,165,2.1,3.8,67,0.00,,,0.00,WSDL version 420,2013-02-11 05:49:00,
2013-02-10 21:54:00,45.3,35.0,29.85,SE,135,1.5,3.6,67,0.00,,,0.00,WSDL version 420,2013-02-11 05:54:00,
2013-02-10 22:04:00,44.9,33.9,29.85,ESE,121,2.4,3.6,65,0.00,,,0.00,WSDL version 420,2013-02-11 06:04:00,
2013-02-10 22:09:00,44.7,33.8,29.85,ESE,108,3.4,4.3,65,0.00,,,0.00,WSDL version 420,2013-02-11 06:09:00,
2013-02-10 22:14:00,44.5,33.7,29.85,SSE,155,2.4,4.3,67,0.00,,,0.00,WSDL version 420,2013-02-11 06:14:00,
2013-02-10 22:19:00,44.3,34.0,29.85,SSE,158,2.2,3.4,67,0.00,,,0.00,WSDL version 420,2013-02-11 06:19:00,
2013-02-10 22:24:00,44.2,33.9,29.85,SSE,155,1.1,3.1,67,0.00,,,0.00,WSDL version 420,2013-02-11 06:24:00,
2013-02-10 22:29:00,44.0,33.5,29.85,SE,138,1.6,2.5,67,0.00,,,0.00,WSDL version 420,2013-02-11 06:29:00,
2013-02-10 22:34:00,43.8,33.3,29.85,ESE,113,3.6,5.4,67,0.00,,,0.00,WSDL version 420,2013-02-11 06:34:00,
2013-02-10 22:39:00,43.7,33.4,29.85,SE,129,2.9,5.4,67,0.00,,,0.00,WSDL version 420,2013-02-11 06:39:00,
2013-02-10 22:44:00,43.5,33.3,29.88,SSE,158,1.6,4.0,67,0.00,,,0.00,WSDL version 420,2013-02-11 06:44:00,
2013-02-10 22:49:00,43.5,33.4,29.88,South,180,1.3,4.0,68,0.00,,,0.00,WSDL version 420,2013-02-11 06:49:00,
2013-02-10 22:54:00,43.3,33.2,29.88,South,180,2.3,2.7,67,0.00,,,0.00,WSDL version 420,2013-02-11 06:54:00,
2013-02-10 22:59:00,43.3,32.9,29.85,South,180,1.8,2.7,66,0.00,,,0.00,WSDL version 420,2013-02-11 06:59:00,
2013-02-10 23:04:00,43.5,32.9,29.85,SSW,203,0.0,2.2,66,0.00,,,0.00,WSDL version 420,2013-02-11 07:04:00,
2013-02-10 23:09:00,43.5,32.5,29.85,SSW,203,0.0,1.3,65,0.00,,,0.00,WSDL version 420,2013-02-11 07:09:00,
2013-02-10 23:14:00,43.5,32.5,29.88,SE,146,0.7,2.0,65,0.00,,,0.00,WSDL version 420,2013-02-11 07:14:00,
2013-02-10 23:19:00,43.4,32.4,29.88,SE,132,1.9,2.5,65,0.00,,,0.00,WSDL version 420,2013-02-11 07:19:00,
2013-02-10 23:24:00,43.1,32.1,29.88,SSE,153,0.7,2.5,65,0.00,,,0.00,WSDL version 420,2013-02-11 07:24:00,
2013-02-10 23:29:00,43.0,32.3,29.88,South,180,2.1,3.1,66,0.00,,,0.00,WSDL version 420,2013-02-11 07:29:00,
2013-02-10 23:34:00,43.0,32.3,29.88,NW,305,1.3,3.1,65,0.00,,,0.00,WSDL version 420,2013-02-11 07:34:00,
2013-02-10 23:39:00,43.0,32.0,29.88,WNW,293,0.0,2.7,65,0.00,,,0.00,WSDL version 420,2013-02-11 07:39:00,
2013-02-10 23:44:00,43.0,32.0,29.88,WNW,293,0.0,0.9,65,0.00,,,0.00,WSDL version 420,2013-02-11 07:44:00,
2013-02-10 23:49:00,43.1,32.2,29.88,SSW,197,0.0,0.0,65,0.00,,,0.00,WSDL version 420,2013-02-11 07:49:00,
2013-02-10 23:54:00,43.3,32.7,29.88,SSE,165,1.0,2.5,66,0.00,,,0.00,WSDL version 420,2013-02-11 07:54:00,
2013-02-10 23:59:00,43.3,33.0,29.88,SSW,198,2.5,2.7,66,0.00,,,0.00,WSDL version 420,2013-02-11 07:59:00,